• In Belarus
  • List of Countries
  • For 7 days
  • Water Temperature
  • Satellite Maps
  • Weather Map
  • Weather Widgets
  • user-avatar
    Login

    Hourly Weather Andora

    Today, 23 May, Wednesday

    Time Temperature Precipitation Wind Pressure Humidity
    00:00 +7°C° 0.1 mm 1 mps 625 mmHg 91%
    01:00 +7°C° 0 mm 1 mps 625 mmHg 91%
    02:00 +7°C° 0 mm 1 mps 625 mmHg 91%
    03:00 +7°C° 0 mm 1 mps 624 mmHg 90%
    04:00 +8°C° 0 mm 1 mps 625 mmHg 89%
    05:00 +8°C° 0 mm 1 mps 625 mmHg 87%
    06:00 +8°C° 0 mm 0 mps 626 mmHg 85%
    07:00 +10°C° 0 mm 1 mps 626 mmHg 78%
    08:00 +12°C° 0 mm 1 mps 627 mmHg 72%
    09:00 +14°C° 0 mm 1 mps 628 mmHg 65%
    10:00 +14°C° 0.3 mm 2 mps 628 mmHg 62%
    11:00 +15°C° 0.3 mm 2 mps 628 mmHg 60%
    12:00 +15°C° 0.3 mm 2 mps 628 mmHg 58%
    13:00 +15°C° 0.4 mm 2 mps 628 mmHg 59%
    14:00 +16°C° 0.4 mm 2 mps 628 mmHg 60%
    15:00 +16°C° 0.4 mm 3 mps 628 mmHg 61%
    16:00 +15°C° 0.8 mm 2 mps 627 mmHg 67%
    17:00 +14°C° 0.8 mm 2 mps 627 mmHg 73%
    18:00 +13°C° 0.8 mm 1 mps 627 mmHg 79%
    19:00 +12°C° 0.2 mm 1 mps 626 mmHg 83%
    20:00 +10°C° 0.2 mm 1 mps 626 mmHg 87%
    21:00 +9°C° 0.2 mm 1 mps 626 mmHg 90%
    22:00 +8°C° 0 mm 1 mps 626 mmHg 91%
    23:00 +8°C° 0 mm 1 mps 625 mmHg 91%

    Tomorrow, 24 May, Thursday

    Time Temperature Precipitation Wind Pressure Humidity
    00:00 +8°C° 0 mm 1 mps 625 mmHg 91%
    01:00 +8°C° 0 mm 1 mps 625 mmHg 89%
    02:00 +8°C° 0 mm 1 mps 625 mmHg 88%
    03:00 +8°C° 0 mm 1 mps 625 mmHg 87%
    04:00 +8°C° 0 mm 1 mps 625 mmHg 84%
    05:00 +9°C° 0 mm 1 mps 626 mmHg 82%
    06:00 +10°C° 0 mm 1 mps 626 mmHg 80%
    07:00 +12°C° 0 mm 1 mps 627 mmHg 71%
    08:00 +14°C° 0 mm 2 mps 628 mmHg 63%
    09:00 +17°C° 0 mm 2 mps 629 mmHg 54%
    10:00 +17°C° 0.1 mm 2 mps 629 mmHg 52%
    11:00 +18°C° 0.1 mm 3 mps 629 mmHg 49%
    12:00 +19°C° 0.1 mm 3 mps 629 mmHg 47%
    13:00 +19°C° 0.1 mm 3 mps 629 mmHg 47%
    14:00 +19°C° 0.1 mm 3 mps 629 mmHg 47%
    15:00 +19°C° 0.1 mm 3 mps 628 mmHg 47%
    16:00 +18°C° 0.1 mm 3 mps 628 mmHg 52%
    17:00 +17°C° 0.1 mm 3 mps 627 mmHg 58%
    18:00 +16°C° 0.1 mm 2 mps 627 mmHg 63%
    19:00 +14°C° 0 mm 2 mps 626 mmHg 66%
    20:00 +12°C° 0 mm 2 mps 626 mmHg 69%
    21:00 +9°C° 0 mm 2 mps 625 mmHg 72%
    22:00 +9°C° 0 mm 2 mps 625 mmHg 69%
    23:00 +9°C° 0 mm 2 mps 625 mmHg 65%

    Day after tomorrow, 25 May, Friday

    Time Temperature Precipitation Wind Pressure Humidity
    00:00 +9°C° 0 mm 2 mps 625 mmHg 62%
    01:00 +8°C° 0 mm 2 mps 625 mmHg 60%
    02:00 +8°C° 0 mm 2 mps 625 mmHg 59%
    03:00 +8°C° 0 mm 2 mps 624 mmHg 58%
    04:00 +9°C° 0 mm 2 mps 625 mmHg 58%
    05:00 +10°C° 0 mm 2 mps 625 mmHg 58%
    06:00 +12°C° 0 mm 2 mps 625 mmHg 58%
    07:00 +13°C° 0.1 mm 3 mps 626 mmHg 54%
    08:00 +16°C° 0.1 mm 3 mps 627 mmHg 50%
    09:00 +18°C° 0.1 mm 4 mps 627 mmHg 46%
    10:00 +19°C° 0.1 mm 4 mps 628 mmHg 44%
    11:00 +20°C° 0.1 mm 4 mps 628 mmHg 41%
    12:00 +21°C° 0.1 mm 5 mps 628 mmHg 39%
    13:00 +20°C° 0 mm 5 mps 628 mmHg 40%
    14:00 +20°C° 0 mm 5 mps 627 mmHg 40%
    15:00 +20°C° 0 mm 5 mps 627 mmHg 41%
    16:00 +19°C° 0 mm 4 mps 626 mmHg 46%
    17:00 +18°C° 0 mm 4 mps 626 mmHg 52%
    18:00 +16°C° 0 mm 3 mps 625 mmHg 57%
    19:00 +13°C° 0 mm 3 mps 625 mmHg 61%
    20:00 +12°C° 0 mm 2 mps 624 mmHg 65%
    21:00 +10°C° 0 mm 2 mps 624 mmHg 68%
    22:00 +9°C° 0 mm 2 mps 624 mmHg 68%
    23:00 +9°C° 0 mm 2 mps 624 mmHg 69%

    26 May, Saturday

    Time Temperature Precipitation Wind Pressure Humidity
    00:00 +9°C° 0 mm 2 mps 624 mmHg 69%
    01:00 +8°C° 0 mm 2 mps 623 mmHg 70%
    02:00 +8°C° 0 mm 2 mps 623 mmHg 71%
    03:00 +8°C° 0 mm 2 mps 623 mmHg 73%
    04:00 +9°C° 0 mm 2 mps 623 mmHg 71%
    05:00 +10°C° 0 mm 2 mps 624 mmHg 68%
    06:00 +12°C° 0 mm 2 mps 624 mmHg 66%
    07:00 +14°C° 0 mm 2 mps 625 mmHg 58%
    08:00 +16°C° 0 mm 3 mps 626 mmHg 51%
    09:00 +18°C° 0 mm 3 mps 627 mmHg 44%
    10:00 +19°C° 0 mm 4 mps 628 mmHg 42%
    11:00 +21°C° 0 mm 4 mps 628 mmHg 40%
    12:00 +22°C° 0 mm 4 mps 628 mmHg 37%
    13:00 +22°C° 0 mm 4 mps 628 mmHg 39%
    14:00 +21°C° 0 mm 4 mps 628 mmHg 40%
    15:00 +21°C° 0 mm 4 mps 628 mmHg 42%
    16:00 +20°C° 0.1 mm 4 mps 627 mmHg 49%
    17:00 +19°C° 0.1 mm 3 mps 627 mmHg 57%
    18:00 +17°C° 0.1 mm 3 mps 626 mmHg 64%
    19:00 +15°C° 0 mm 2 mps 626 mmHg 71%
    20:00 +13°C° 0 mm 2 mps 625 mmHg 77%
    21:00 +12°C° 0 mm 1 mps 625 mmHg 83%
    22:00 +11°C° 0 mm 1 mps 625 mmHg 81%
    23:00 +10°C° 0 mm 2 mps 625 mmHg 78%

    27 May, Sunday

    Time Temperature Precipitation Wind Pressure Humidity
    00:00 +9°C° 0 mm 2 mps 625 mmHg 75%
    01:00 +9°C° 0 mm 2 mps 625 mmHg 73%
    02:00 +9°C° 0 mm 2 mps 625 mmHg 70%
    03:00 +9°C° 0 mm 2 mps 624 mmHg 67%
    04:00 +10°C° 0 mm 2 mps 625 mmHg 66%
    05:00 +10°C° 0 mm 2 mps 625 mmHg 65%
    06:00 +12°C° 0 mm 2 mps 626 mmHg 63%
    07:00 +14°C° 0.3 mm 2 mps 626 mmHg 61%
    08:00 +16°C° 0.3 mm 2 mps 627 mmHg 59%
    09:00 +17°C° 0.3 mm 2 mps 628 mmHg 56%
    10:00 +17°C° 0.9 mm 3 mps 628 mmHg 60%
    11:00 +17°C° 0.9 mm 3 mps 628 mmHg 64%
    12:00 +17°C° 0.9 mm 3 mps 628 mmHg 67%
    13:00 +17°C° 0.4 mm 3 mps 628 mmHg 67%
    14:00 +17°C° 0.4 mm 3 mps 628 mmHg 66%
    15:00 +18°C° 0.4 mm 4 mps 627 mmHg 66%
    16:00 +17°C° 0.3 mm 3 mps 627 mmHg 70%
    17:00 +16°C° 0.3 mm 3 mps 626 mmHg 74%
    18:00 +16°C° 0.3 mm 3 mps 626 mmHg 78%
    19:00 +13°C° 0.1 mm 3 mps 626 mmHg 82%
    20:00 +13°C° 0.1 mm 2 mps 626 mmHg 85%
    21:00 +12°C° 0.1 mm 2 mps 625 mmHg 89%
    22:00 +10°C° 0.1 mm 2 mps 625 mmHg 89%
    23:00 +10°C° 0.1 mm 2 mps 625 mmHg 88%

    28 May, Monday

    Time Temperature Precipitation Wind Pressure Humidity
    00:00 +10°C° 0.1 mm 2 mps 625 mmHg 88%
    01:00 +9°C° 0.6 mm 2 mps 624 mmHg 88%
    02:00 +9°C° 0.6 mm 2 mps 624 mmHg 88%
    03:00 +9°C° 0.6 mm 2 mps 624 mmHg 88%
    04:00 +9°C° 0.4 mm 2 mps 624 mmHg 88%
    05:00 +10°C° 0.4 mm 2 mps 624 mmHg 87%
    06:00 +10°C° 0.4 mm 2 mps 624 mmHg 86%
    07:00 +12°C° 1.1 mm 2 mps 625 mmHg 84%
    08:00 +13°C° 1.1 mm 2 mps 625 mmHg 83%
    09:00 +12°C° 1.1 mm 3 mps 625 mmHg 81%
    10:00 +13°C° 0.7 mm 3 mps 625 mmHg 79%
    11:00 +14°C° 0.7 mm 3 mps 625 mmHg 76%
    12:00 +16°C° 0.7 mm 3 mps 626 mmHg 73%
    13:00 +16°C° 0.2 mm 3 mps 625 mmHg 74%
    14:00 +16°C° 0.2 mm 3 mps 625 mmHg 75%
    15:00 +14°C° 0.2 mm 3 mps 625 mmHg 76%
    16:00 +14°C° 0.5 mm 3 mps 625 mmHg 79%
    17:00 +14°C° 0.5 mm 2 mps 624 mmHg 82%
    18:00 +14°C° 0.5 mm 2 mps 624 mmHg 85%
    19:00 +12°C° 0.3 mm 2 mps 624 mmHg 88%
    20:00 +10°C° 0.3 mm 2 mps 624 mmHg 90%
    21:00 +10°C° 0.3 mm 1 mps 624 mmHg 92%
    22:00 +10°C° 0 mm 1 mps 624 mmHg 92%
    23:00 +10°C° 0 mm 1 mps 624 mmHg 91%
    Show more